�������l�o���
Date,Time,MP-1(��Sv/h),MP-2(��Sv/h),MP-3(��Sv/h),MP-4(��Sv/h),MP-5(��Sv/h),MP-6(��Sv/h),MP-7(��Sv/h),MP-8(��Sv/h),����,����(m/s),���J
2022/05/16,00:00,0.568,0.848,0.544,1.028,0.728,0.346,0.600,0.560,�k�k��,2.0,��
2022/05/16,00:10,0.567,0.847,0.545,1.027,0.730,0.347,0.599,0.564,�k�k��,2.5,�L
2022/05/16,00:20,0.567,0.845,0.545,1.028,0.728,0.347,0.600,0.563,�k�k��,2.5,�L
2022/05/16,00:30,0.567,0.847,0.545,1.028,0.730,0.347,0.601,0.563,�k�k��,2.0,��
2022/05/16,00:40,0.568,0.847,0.545,1.027,0.731,0.345,0.601,0.561,�k�k��,2.0,��
2022/05/16,00:50,0.565,0.846,0.544,1.028,0.730,0.347,0.600,0.562,�k�k��,2.3,�L
2022/05/16,01:00,0.569,0.846,0.544,1.029,0.731,0.347,0.600,0.561,�k,2.0,�L
2022/05/16,01:10,0.568,0.847,0.544,1.029,0.730,0.347,0.599,0.563,�k�k��,2.9,�L
2022/05/16,01:20,0.568,0.846,0.545,1.029,0.730,0.347,0.599,0.562,�k�k��,2.8,��
2022/05/16,01:30,0.568,0.847,0.545,1.028,0.730,0.347,0.601,0.563,�k�k��,3.1,��
2022/05/16,01:40,0.567,0.846,0.544,1.029,0.730,0.346,0.599,0.564,�k�k��,3.5,��
2022/05/16,01:50,0.567,0.847,0.544,1.028,0.731,0.348,0.599,0.564,�k�k��,3.7,�L
2022/05/16,02:00,0.570,0.847,0.545,1.030,0.731,0.348,0.600,0.562,�k�k��,3.7,�L
2022/05/16,02:10,0.567,0.847,0.545,1.031,0.729,0.346,0.600,0.563,�k�k��,4.4,�L
2022/05/16,02:20,0.568,0.846,0.546,1.031,0.732,0.346,0.600,0.562,�k�k��,5.1,�L
2022/05/16,02:30,0.569,0.845,0.543,1.030,0.731,0.348,0.600,0.562,�k�k��,5.6,�L
2022/05/16,02:40,0.568,0.847,0.543,1.030,0.731,0.347,0.600,0.564,�k�k��,5.8,�L
2022/05/16,02:50,0.568,0.846,0.544,1.028,0.727,0.349,0.599,0.563,�k�k��,5.3,�L
2022/05/16,03:00,0.568,0.845,0.545,1.029,0.728,0.349,0.598,0.563,�k�k��,5.8,�L
2022/05/16,03:10,0.566,0.844,0.544,1.030,0.730,0.347,0.597,0.563,�k�k��,5.8,�L
2022/05/16,03:20,0.566,0.843,0.544,1.028,0.730,0.347,0.598,0.562,�k�k��,5.7,�L
2022/05/16,03:30,0.564,0.842,0.544,1.028,0.728,0.349,0.598,0.562,�k�k��,5.4,�L
2022/05/16,03:40,0.566,0.842,0.542,1.027,0.726,0.348,0.600,0.563,�k�k��,5.3,�L
2022/05/16,03:50,0.566,0.845,0.542,1.027,0.729,0.347,0.596,0.561,�k�k��,5.5,�L
2022/05/16,04:00,0.565,0.843,0.541,1.027,0.726,0.347,0.599,0.563,�k�k��,4.8,�L
2022/05/16,04:10,0.566,0.840,0.542,1.027,0.728,0.347,0.599,0.562,�k��,5.1,�L
2022/05/16,04:20,0.565,0.844,0.541,1.028,0.726,0.346,0.598,0.563,�k��,5.3,�L
2022/05/16,04:30,0.566,0.841,0.541,1.029,0.727,0.346,0.599,0.562,�k��,5.8,�L
2022/05/16,04:40,0.565,0.843,0.541,1.030,0.727,0.346,0.598,0.561,�k�k��,5.8,�L
2022/05/16,04:50,0.564,0.842,0.540,1.026,0.728,0.345,0.598,0.564,�k�k��,5.0,�L
2022/05/16,05:00,0.565,0.840,0.539,1.028,0.727,0.348,0.597,0.562,�k��,3.8,�L
2022/05/16,05:10,0.565,0.840,0.541,1.028,0.726,0.347,0.599,0.562,�k�k��,4.0,�L
2022/05/16,05:20,0.564,0.840,0.541,1.029,0.727,0.347,0.598,0.563,�k�k��,3.5,�L
2022/05/16,05:30,0.564,0.840,0.540,1.028,0.728,0.346,0.599,0.561,�k�k��,3.4,�L
2022/05/16,05:40,0.564,0.841,0.541,1.026,0.725,0.346,0.597,0.562,�k�k��,3.0,�L
2022/05/16,05:50,0.564,0.841,0.542,1.028,0.726,0.348,0.598,0.562,�k��,2.3,�L
2022/05/16,06:00,0.563,0.840,0.540,1.026,0.727,0.347,0.599,0.561,�k��,2.0,�L
2022/05/16,06:10,0.563,0.840,0.540,1.025,0.725,0.346,0.598,0.560,�k��,2.5,�L
2022/05/16,06:20,0.565,0.840,0.540,1.028,0.725,0.346,0.596,0.562,�k��,2.2,�L
2022/05/16,06:30,0.563,0.839,0.540,1.028,0.724,0.346,0.597,0.562,�k��,1.9,�L
2022/05/16,06:40,0.563,0.838,0.541,1.027,0.725,0.346,0.597,0.561,�k��,1.5,�L
2022/05/16,06:50,0.563,0.839,0.539,1.027,0.724,0.346,0.596,0.562,�k�k��,1.7,�L
2022/05/16,07:00,0.564,0.840,0.541,1.028,0.725,0.347,0.597,0.560,�k��,1.5,�L
2022/05/16,07:10,0.562,0.839,0.539,1.027,0.723,0.345,0.598,0.560,�k��,1.7,�L
2022/05/16,07:20,0.562,0.837,0.540,1.028,0.723,0.346,0.595,0.560,�k��,1.5,�L
2022/05/16,07:30,0.562,0.837,0.539,1.028,0.723,0.346,0.595,0.559,�k��,1.7,�L
2022/05/16,07:40,0.562,0.837,0.539,1.027,0.723,0.347,0.594,0.559,�k��,1.9,�L
2022/05/16,07:50,0.562,0.834,0.539,1.025,0.721,0.345,0.595,0.559,���k��,2.2,�L
2022/05/16,08:00,0.560,0.831,0.537,1.025,0.720,0.345,0.593,0.559,��,1.2,�L
2022/05/16,08:10,0.562,0.832,0.537,1.025,0.720,0.345,0.592,0.559,��,1.5,�L
2022/05/16,08:20,0.560,0.832,0.539,1.024,0.719,0.345,0.594,0.556,��,1.4,�L
2022/05/16,08:30,0.558,0.830,0.536,1.022,0.719,0.345,0.593,0.557,��,1.5,�L
2022/05/16,08:40,0.559,0.828,0.537,1.024,0.718,0.345,0.594,0.557,�쐼,1.2,�L
2022/05/16,08:50,0.559,0.827,0.536,1.023,0.717,0.346,0.591,0.558,���쐼,1.5,�L
2022/05/16,09:00,0.558,0.825,0.536,1.022,0.716,0.345,0.593,0.558,��쐼,1.4,�L
2022/05/16,09:10,0.558,0.825,0.537,1.019,0.716,0.347,0.592,0.558,�쐼,0.9,�L
2022/05/16,09:20,0.558,0.823,0.538,1.018,0.713,0.345,0.592,0.557,�k��,1.5,�L
2022/05/16,09:30,0.559,0.822,0.535,1.017,0.715,0.346,0.590,0.557,�k��,2.3,�L
2022/05/16,09:40,0.558,0.822,0.536,1.019,0.713,0.346,0.591,0.556,�k��,2.0,�L
2022/05/16,09:50,0.558,0.819,0.536,1.015,0.713,0.347,0.590,0.555,�k��,2.6,�L
2022/05/16,10:00,0.559,0.821,0.534,1.014,0.710,0.347,0.587,0.556,�k��,3.3,�L
2022/05/16,10:10,0.556,0.819,0.535,1.012,0.710,0.347,0.588,0.555,�k��,3.5,�L
2022/05/16,10:20,0.558,0.816,0.537,1.013,0.710,0.346,0.590,0.553,�k��,2.2,�L
2022/05/16,10:30,0.557,0.818,0.537,1.012,0.711,0.346,0.587,0.554,���k��,2.3,�L
2022/05/16,10:40,0.557,0.817,0.536,1.011,0.710,0.345,0.590,0.555,���k��,2.3,�L
2022/05/16,10:50,0.556,0.817,0.537,1.011,0.711,0.345,0.590,0.554,�k��,2.2,�L
2022/05/16,11:00,0.556,0.818,0.533,1.009,0.709,0.343,0.587,0.554,�k��,3.2,�L
2022/05/16,11:10,0.556,0.818,0.533,1.010,0.709,0.346,0.589,0.555,�k��,4.6,�L
2022/05/16,11:20,0.555,0.818,0.534,1.011,0.709,0.344,0.589,0.556,�k�k��,4.1,�L
2022/05/16,11:30,0.553,0.817,0.534,1.007,0.707,0.345,0.588,0.553,�k�k��,4.6,�L
2022/05/16,11:40,0.555,0.815,0.532,1.006,0.707,0.345,0.588,0.552,�k�k��,4.2,�L
2022/05/16,11:50,0.553,0.814,0.534,1.003,0.706,0.344,0.587,0.554,�k�k��,3.9,�L
2022/05/16,12:00,0.553,0.809,0.531,1.003,0.703,0.344,0.587,0.551,�k�k��,3.1,�L
2022/05/16,12:10,0.552,0.812,0.532,1.003,0.703,0.344,0.586,0.553,�k��,2.2,�L
2022/05/16,12:20,0.553,0.811,0.532,1.001,0.705,0.344,0.586,0.552,�k�k��,1.2,�L
2022/05/16,12:30,0.555,0.811,0.532,1.002,0.705,0.344,0.586,0.552,�k,2.3,�L
2022/05/16,12:40,0.553,0.813,0.530,1.003,0.704,0.345,0.584,0.553,�k�k��,2.2,�L
2022/05/16,12:50,0.552,0.812,0.532,1.000,0.704,0.343,0.584,0.552,�k�k��,2.6,�L
2022/05/16,13:00,0.552,0.812,0.532,1.002,0.702,0.343,0.585,0.552,�k,1.5,�L
2022/05/16,13:10,0.551,0.812,0.532,1.001,0.703,0.343,0.584,0.551,�k,3.1,�L
2022/05/16,13:20,0.551,0.811,0.531,0.999,0.704,0.342,0.584,0.551,�k�k��,4.4,�L
2022/05/16,13:30,0.552,0.811,0.530,1.001,0.704,0.343,0.584,0.555,�k�k��,5.5,�L
2022/05/16,13:40,0.550,0.811,0.531,1.000,0.702,0.342,0.583,0.554,�k�k��,4.9,�L
2022/05/16,13:50,0.551,0.811,0.528,0.998,0.705,0.341,0.584,0.551,�k�k��,3.8,�L
2022/05/16,14:00,0.550,0.814,0.528,1.000,0.703,0.341,0.584,0.554,�k�k��,4.5,�L
2022/05/16,14:10,0.551,0.812,0.529,1.000,0.705,0.341,0.585,0.555,�k,4.3,�L
2022/05/16,14:20,0.549,0.812,0.529,1.000,0.703,0.340,0.585,0.554,�k,4.1,��
2022/05/16,14:30,0.550,0.813,0.528,1.000,0.704,0.341,0.585,0.554,�k,3.9,�L
2022/05/16,14:40,0.548,0.813,0.529,1.001,0.704,0.340,0.585,0.554,�k,3.0,�L
2022/05/16,14:50,0.548,0.813,0.526,0.998,0.704,0.340,0.585,0.554,�k�k��,3.1,�L
2022/05/16,15:00,0.548,0.815,0.528,0.999,0.704,0.340,0.585,0.553,�k�k��,3.8,�L
2022/05/16,15:10,0.550,0.814,0.529,1.000,0.701,0.341,0.586,0.554,�k�k��,3.4,�L
2022/05/16,15:20,0.548,0.813,0.528,0.998,0.705,0.341,0.585,0.553,�k�k��,3.5,�L
2022/05/16,15:30,0.548,0.813,0.526,1.000,0.703,0.341,0.584,0.554,�k�k��,3.2,�L
2022/05/16,15:40,0.549,0.812,0.527,0.997,0.703,0.341,0.584,0.554,�k,3.1,�L
2022/05/16,15:50,0.549,0.813,0.528,0.999,0.703,0.342,0.584,0.553,�k�k��,3.5,�L
2022/05/16,16:00,0.550,0.811,0.527,0.999,0.701,0.342,0.583,0.553,�k,3.4,�L
2022/05/16,16:10,0.548,0.811,0.527,1.001,0.702,0.341,0.584,0.553,�k,3.5,�L
2022/05/16,16:20,0.550,0.812,0.526,0.997,0.702,0.341,0.585,0.554,�k,3.8,��
2022/05/16,16:30,0.547,0.810,0.527,0.998,0.704,0.339,0.583,0.553,�k�k��,4.2,��
2022/05/16,16:40,0.551,0.814,0.527,0.999,0.703,0.338,0.585,0.553,�k�k��,3.8,��
2022/05/16,16:50,0.548,0.813,0.526,0.999,0.704,0.340,0.585,0.554,�k�k��,3.8,��
2022/05/16,17:00,0.547,0.813,0.526,0.999,0.702,0.341,0.586,0.553,�k�k��,3.1,��
2022/05/16,17:10,0.549,0.814,0.527,0.999,0.701,0.339,0.586,0.553,�k�k��,3.6,�L
2022/05/16,17:20,0.548,0.813,0.527,1.000,0.700,0.340,0.584,0.553,�k�k��,1.4,�L
2022/05/16,17:30,0.548,0.813,0.528,0.999,0.701,0.340,0.584,0.554,�k�k��,3.4,�L
2022/05/16,17:40,0.549,0.811,0.526,0.999,0.701,0.343,0.584,0.552,�k�k��,3.6,�L
2022/05/16,17:50,0.547,0.811,0.527,0.997,0.698,0.342,0.581,0.551,�k,3.3,�L
2022/05/16,18:00,0.548,0.810,0.528,0.996,0.700,0.342,0.581,0.551,�k�k��,3.2,�L
2022/05/16,18:10,0.549,0.807,0.527,0.995,0.699,0.342,0.581,0.549,�k,3.4,�L
2022/05/16,18:20,0.549,0.808,0.526,0.995,0.699,0.340,0.582,0.553,�k,3.7,�L
2022/05/16,18:30,0.547,0.807,0.527,0.995,0.700,0.340,0.582,0.552,�k�k��,4.0,�L
2022/05/16,18:40,0.548,0.808,0.527,0.994,0.701,0.341,0.582,0.552,�k�k��,3.9,�L
2022/05/16,18:50,0.548,0.809,0.527,0.995,0.700,0.341,0.583,0.553,�k�k��,4.2,��
2022/05/16,19:00,0.546,0.808,0.527,0.995,0.700,0.341,0.583,0.552,�k�k��,4.6,��
2022/05/16,19:10,0.546,0.809,0.528,0.994,0.699,0.339,0.584,0.552,�k�k��,5.1,��
2022/05/16,19:20,0.547,0.810,0.525,0.992,0.698,0.338,0.583,0.552,�k�k��,4.4,��
2022/05/16,19:30,0.547,0.810,0.524,0.994,0.700,0.339,0.583,0.553,�k�k��,4.4,��
2022/05/16,19:40,0.547,0.809,0.524,0.994,0.700,0.340,0.583,0.553,�k�k��,4.5,�L
2022/05/16,19:50,0.547,0.809,0.525,0.996,0.699,0.340,0.582,0.553,�k�k��,4.0,�L
2022/05/16,20:00,0.546,0.809,0.523,0.995,0.701,0.340,0.584,0.551,�k�k��,4.0,��
2022/05/16,20:10,0.547,0.809,0.524,0.994,0.697,0.338,0.584,0.553,�k�k��,4.4,��
2022/05/16,20:20,0.547,0.810,0.525,0.995,0.699,0.338,0.582,0.554,�k�k��,5.0,��
2022/05/16,20:30,0.545,0.809,0.524,0.994,0.700,0.340,0.581,0.552,�k�k��,5.0,��
2022/05/16,20:40,0.544,0.810,0.525,0.996,0.699,0.338,0.584,0.552,�k�k��,4.6,��
2022/05/16,20:50,0.546,0.811,0.526,0.996,0.700,0.339,0.583,0.553,�k�k��,4.7,��
2022/05/16,21:00,0.547,0.811,0.526,0.994,0.698,0.338,0.583,0.552,�k�k��,5.0,��
2022/05/16,21:10,0.546,0.810,0.525,0.996,0.701,0.339,0.584,0.553,�k�k��,5.0,��
2022/05/16,21:20,0.546,0.810,0.526,0.994,0.699,0.338,0.582,0.554,�k�k��,5.6,�L
2022/05/16,21:30,0.547,0.811,0.525,0.997,0.700,0.340,0.582,0.552,�k�k��,5.2,�L
2022/05/16,21:40,0.547,0.810,0.526,0.997,0.701,0.341,0.583,0.553,�k�k��,5.3,�L
2022/05/16,21:50,0.547,0.812,0.525,0.994,0.698,0.338,0.582,0.553,�k�k��,5.9,�L
2022/05/16,22:00,0.546,0.810,0.525,0.998,0.699,0.341,0.584,0.553,�k��,5.6,�L
2022/05/16,22:10,0.547,0.808,0.527,0.994,0.698,0.340,0.582,0.552,�k��,5.9,�L
2022/05/16,22:20,0.547,0.807,0.524,0.993,0.696,0.340,0.580,0.551,�k��,5.5,�L
2022/05/16,22:30,0.542,0.801,0.524,0.984,0.692,0.340,0.578,0.547,�k�k��,6.5,�L
2022/05/16,22:40,0.539,0.796,0.523,0.978,0.689,0.340,0.576,0.549,�k��,6.5,�L
2022/05/16,22:50,0.540,0.795,0.524,0.979,0.690,0.338,0.577,0.546,�k�k��,6.1,�L
2022/05/16,23:00,0.542,0.796,0.522,0.981,0.690,0.340,0.577,0.546,�k��,5.8,�L
2022/05/16,23:10,0.541,0.798,0.523,0.979,0.690,0.339,0.577,0.547,�k�k��,6.7,�L
2022/05/16,23:20,0.543,0.798,0.524,0.980,0.689,0.338,0.577,0.548,�k�k��,5.8,��
2022/05/16,23:30,0.543,0.800,0.526,0.980,0.693,0.339,0.578,0.549,�k�k��,5.7,��
2022/05/16,23:40,0.543,0.804,0.523,0.982,0.692,0.338,0.578,0.550,�k�k��,5.7,�L
2022/05/16,23:50,0.542,0.801,0.523,0.981,0.690,0.338,0.578,0.549,�k�k��,6.4,�L
